Location: The Rolnick Observatory
(41.1711°N, 73.3275°W)
Time: 04:22:25
(UTC-04:00)

Daily predictions for brighter satellites

Satellite Brightness Start Highest point End
(mag) Time Altitude Azimuth Time Altitude Azimuth Time Altitude Azimuth
CZ-4 R/B 3.9 00:01:25 10° N 00:06:23 81° WNW 00:06:23 81° WNW
Cosmos 923 Rocket 4.3 00:07:50 57° ENE 00:07:50 57° ENE 00:12:28 10° NNE
Cosmos 1680 Rocket 4.2 00:09:10 43° ENE 00:09:10 43° ENE 00:13:20 10° NNE
Cosmos 2237 Rocket 2.2 00:05:14 10° NNW 00:10:55 70° WSW 00:11:02 70° WSW
Cosmos 2082 3.6 00:16:48 80° SW 00:17:07 87° WNW 00:22:54 10° NNE
CZ-4B R/B 3.7 00:15:54 10° NNE 00:20:34 64° ENE 00:20:34 64° ENE
USA 229 DEB 4.1 00:26:18 44° ESE 00:26:18 44° ESE 00:32:28 10° NE
H-2A R/B 2.7 00:26:57 53° NNE 00:26:57 53° NNE 00:30:21 10° N
USA 229 4.1 00:26:25 43° ESE 00:26:25 43° ESE 00:32:34 10° NE
Mayak -0.5 00:24:21 10° N 00:27:37 52° N 00:27:37 52° N
Cosmos 2266 Rocket 3.9 00:25:56 10° N 00:32:19 80° W 00:33:02 70° SSW
Meteor 2-11 Rocket 4.3 00:32:08 71° SW 00:32:44 78° W 00:38:50 10° N
CZ-4C R/B 4.2 00:42:14 10° WNW 00:48:04 25° WSW 00:48:29 25° WSW
Cosmos 1400 Rocket 3.9 00:53:58 44° NNE 00:53:58 44° NNE 00:56:52 10° N
COSMOS 2455 3.8 00:50:51 31° W 00:53:01 42° NW 00:58:44 10° NNE
Cosmos 1825 Rocket 4.2 00:54:50 54° NNE 00:54:50 54° NNE 00:58:17 10° N
Cosmos 2219 Rocket 4.4 00:57:48 10° WNW 00:59:19 12° W 00:59:19 12° W
Cosmos 1238 Rocket 3.6 01:05:17 56° N 01:05:17 56° N 01:08:30 10° N
Cosmos 1417 Rocket 4.5 01:10:14 64° SE 01:10:58 71° E 01:17:19 10° NNE
Meteor 1-24 Rocket 3.6 01:15:29 76° SE 01:15:43 78° E 01:21:37 10° NNE
Cosmos 1244 Rocket 4.4 01:12:44 10° N 01:19:03 78° W 01:19:42 70° SSW
Meteor 2-5 Rocket 3.9 01:22:13 59° W 01:22:40 61° WNW 01:28:32 10° N
Cosmos 2263 Rocket 3.1 01:24:40 35° ESE 01:24:43 35° ESE 01:29:50 10° NE
Cosmos 1943 4.3 01:20:44 10° N 01:26:03 38° ENE 01:28:31 26° ESE
Cosmos 1745 Rocket 4.2 01:19:49 10° N 01:26:09 64° E 01:27:28 52° SE
Cosmos 1315 Rocket 3.9 01:28:22 42° N 01:28:22 42° N 01:31:05 10° N
SL-16 R/B 3.0 01:22:11 10° NW 01:26:44 38° W 01:26:44 38° W
Cosmos 1371 Rocket 4.1 01:22:55 10° NNW 01:27:39 64° WNW 01:27:39 64° WNW
ISS -0.8 01:27:20 10° NW 01:27:41 12° NW 01:27:41 12° NW
Cosmos 1908 4.5 01:29:10 10° N 01:31:47 39° NNE 01:31:47 39° NNE
GEOS 3 Rocket 4.5 01:28:06 10° NE 01:32:35 38° ESE 01:32:35 38° ESE
Cosmos 1726 3.5 01:37:47 10° N 01:40:17 36° NNE 01:40:17 36° NNE
S3M 3.8 01:41:11 69° SSW 01:42:02 86° W 01:48:20 10° N
Cosmos 1452 Rocket 4.2 01:37:41 10° N 01:42:50 50° ENE 01:44:06 41° ESE
Cosmos 158 Rocket 4.3 01:43:12 54° ESE 01:43:20 55° ESE 01:48:36 10° NNE
Cosmos 2297 Rocket 4.4 01:41:29 11° W 01:44:42 17° NW 01:48:18 10° N
Cosmos 2056 Rocket 3.7 01:40:00 10° NNW 01:44:26 56° WNW 01:44:26 56° WNW
ADEOS Rocket 4.1 01:40:59 10° N 01:45:30 27° WNW 01:46:45 24° W
Cosmos 1346 Rocket 3.8 01:42:33 10° N 01:45:13 43° N 01:45:13 43° N
Cosmos-2242 4.1 01:45:50 10° NNW 01:48:51 37° NW 01:48:51 37° NW
Cosmos 1386 Rocket 4.4 01:49:26 10° N 01:55:49 88° E 01:57:07 59° S
NOSS 3-1 (C) 3.2 01:56:13 64° WSW 01:57:07 80° NW 02:03:31 10° NNE
Landsat 5 3.8 01:59:12 60° NE 01:59:12 60° NE 02:02:51 10° N
Cosmos 1603 3.6 01:53:32 10° NNW 01:59:11 70° WSW 01:59:24 69° SW
Meteor 2-13 Rocket 4.3 01:56:09 10° N 02:02:14 84° W 02:03:19 63° S
Cosmos 1709 Rocket 4.3 01:56:43 10° N 02:03:03 61° E 02:05:22 39° SE
Cosmos 1420 Rocket 4.0 02:06:11 10° NNW 02:11:25 77° ENE 02:12:23 58° SE
Cosmos 2285 Rocket 4.1 02:11:29 49° SSE 02:13:04 66° ESE 02:19:23 10° NNE
Meteor 2-1 Rocket 4.4 02:07:41 10° NNW 02:13:20 56° W 02:13:52 54° WSW
SL-14 R/B 3.7 02:15:20 58° NE 02:15:20 58° NE 02:18:37 10° NNE
CZ-4B R/B 2.6 02:15:56 42° N 02:15:56 42° N 02:18:17 10° N
SeaSat 1 4.4 02:13:44 10° ESE 02:17:52 28° NE 02:22:01 10° N
NOSS 3-1 (A) 3.3 02:16:40 58° SW 02:17:53 82° NW 02:24:20 10° NNE
Cosmos 1626 3.2 02:22:28 38° E 02:22:28 38° E 02:25:48 10° NNE
Cosmos 1076 Rocket 4.1 02:22:38 46° ESE 02:23:02 48° E 02:27:12 10° NNE
Cosmos 1674 4.5 02:26:46 22° NW 02:26:46 22° NW 02:29:01 10° NNW
Spot 2 4.3 02:21:00 10° N 02:26:05 77° WNW 02:26:39 67° SW
USA 267 4.0 02:22:00 10° ENE 02:28:01 38° SE 02:29:44 33° SSE
CZ-2D R/B 3.0 02:23:13 10° NNE 02:28:06 40° E 02:29:47 31° SE
Cosmos 1328 4.5 02:28:03 45° ESE 02:28:14 46° E 02:32:04 10° NNE
Meteor 1-21 Rocket 4.3 02:30:51 52° SW 02:32:12 70° W 02:38:08 10° N
Cosmos 1689 Rocket 3.9 02:34:07 29° NNW 02:34:07 29° NNW 02:35:51 10° NNW
SL-08 R/B 4.0 02:31:46 29° SE 02:34:05 53° ENE 02:38:52 10° N
Cosmos 2221 2.4 02:33:06 10° N 02:37:31 80° W 02:37:43 77° SW
Genesis I 3.2 02:38:54 79° NNW 02:38:54 79° NNW 02:42:50 10° NNE
ARIANE 5 R/B 3.9 02:34:36 10° NE 02:39:02 30° E 02:41:23 21° SE
Cosmos 1340 3.4 02:36:16 10° NNW 02:39:09 44° NW 02:39:09 44° NW
Meteor 2-19 Rocket 4.4 02:38:41 10° N 02:44:48 83° E 02:47:41 34° SSE
Resurs 1-4 Rocket 2.4 02:41:27 10° NNE 02:46:43 61° E 02:48:39 38° SSE
Cosmos 1844 Rocket 3.7 02:47:20 26° SSE 02:49:46 38° ESE 02:54:58 10° NE
Aureole 1 Rocket 3.8 02:50:34 28° NW 02:50:34 28° NW 02:52:36 10° N
OAO 2 Rocket 4.0 02:54:02 35° SSE 02:54:02 35° SSE 02:57:59 10° ESE
IRS-P3 4.0 02:49:09 10° NNE 02:54:30 89° WNW 02:56:17 44° SSW
NPP 3.6 02:51:50 10° N 02:57:14 77° WNW 02:59:02 43° SSW
DELTA 2 R/B (1) 3.5 02:55:45 29° W 02:58:33 61° SSW 03:04:04 10° ESE
MOZ.5/SAFIR/RUBIN 5/SL-8 4.2 02:59:01 22° SSE 03:02:02 62° ENE 03:06:45 10° N
SL-16 R/B 2.4 03:00:50 27° S 03:04:26 79° WSW 03:10:40 10° NNW
ADEOS II 4.2 03:02:29 10° NE 03:06:22 21° E 03:10:15 10° SE
Cosmos 1703 3.3 03:07:23 48° SSE 03:08:22 73° E 03:12:19 10° NNE
Cosmos 2263 Rocket 3.2 03:06:21 25° W 03:08:36 34° WNW 03:13:46 10° N
Cosmos 1766 Rocket 3.5 03:08:02 44° S 03:09:21 81° E 03:13:44 10° N
Cosmos 1943 4.0 03:05:01 10° NW 03:09:57 31° WSW 03:10:17 30° WSW
Cosmos 921 Rocket 2.9 03:07:08 10° NNW 03:11:27 83° WSW 03:13:09 37° S
NOSS 2-3 (D) 3.7 03:10:35 45° SW 03:12:04 88° NW 03:17:21 10° NE
BREEZE M DEB (TANK) 3.1 03:10:48 27° SW 03:15:14 79° SSE 03:18:31 10° ENE
Cosmos 1300 4.4 03:13:41 10° NW 03:15:57 20° WNW 03:15:57 20° WNW
Meteor 1-11 4.1 03:14:14 32° S 03:16:57 88° W 03:22:38 10° N
Cosmos 1331 Rocket 4.1 03:11:48 10° NNW 03:16:58 75° ENE 03:22:07 10° SSE
Cosmos 1269 Rocket 4.3 03:16:04 35° SW 03:18:02 54° WNW 03:23:14 10° N
UNKNOWN OBJECT B 4.1 03:17:37 10° NNE 03:21:01 33° E 03:23:12 18° SSE
H-2A R/B 3.0 03:21:06 10° N 03:25:24 48° WNW 03:26:46 35° WSW
Meteor 2-2 Rocket 4.2 03:21:04 10° NNW 03:26:48 66° W 03:30:16 24° S
Cosmos 1455 2.0 03:23:11 10° N 03:26:59 85° W 03:28:26 35° S
Cosmos 2251 Rocket 4.0 03:27:52 22° S 03:31:17 58° ESE 03:36:35 10° NNE
COSMOS 2406 4.0 03:26:29 10° NNW 03:32:10 54° ENE 03:37:48 10° SE
NOSS 2-3 (E) 4.2 03:30:40 30° WSW 03:32:48 57° NW 03:38:05 10° NNE
Helios 1A Rocket 3.5 03:30:34 10° NNE 03:34:35 53° E 03:37:08 21° S
Cosmos 1408 Rocket 3.6 03:34:24 34° SSW 03:36:08 61° W 03:40:27 10° N
Cosmos 2058 2.9 03:34:44 29° S 03:36:49 88° WNW 03:41:03 10° N
Geosat 3.9 03:32:44 10° NNE 03:37:48 84° WNW 03:40:39 26° SSW
ADEOS 4.0 03:33:19 10° NNE 03:38:29 59° ESE 03:42:42 15° S
Cosmos 1151 Rocket 3.5 03:34:37 10° N 03:38:58 61° E 03:43:15 10° SSE
Timation 1 Rocket 4.4 03:36:42 23° SSW 03:40:32 79° ESE 03:46:31 10° NNE
ATLAS 2AS CENTAUR R/B 3.5 03:35:04 17° S 03:41:01 55° ESE 03:48:53 10° NE
CRYOSAT 2 4.3 03:39:49 21° S 03:43:02 70° W 03:47:57 10° N
CZ-2D R/B 3.7 03:43:31 10° NNE 03:47:59 78° E 03:51:11 19° S
Cosmos 2074 Rocket 4.3 03:43:06 10° NNW 03:49:01 48° W 03:53:18 19° SSW
Nadezhda 1 Rocket 4.0 03:45:18 21° SSW 03:49:36 66° W 03:55:54 10° N
SAR-Lupe-2 3.5 03:48:37 21° S 03:50:50 67° WSW 03:54:24 10° NNW
Cosmos 1607 4.2 03:45:03 10° NW 03:51:08 47° WSW 03:57:03 10° S
Cosmos 2184 Rocket 4.4 03:48:29 10° NNW 03:54:31 46° W 03:59:10 17° SSW
SeaSat 1 2.8 03:51:17 14° S 03:55:12 42° WSW 03:59:52 10° NW
Spot 4 Rocket 4.4 03:51:49 10° N 03:56:48 50° WNW 04:00:05 20° SW
Cosmos 2154 Rocket 4.0 03:50:45 10° N 03:57:03 77° W 04:03:21 10° S
Cosmos 1626 4.3 03:57:05 12° W 03:57:49 13° WNW 03:59:36 10° NW
Cosmos 1743 Rocket 3.7 04:04:18 19° SSW 04:07:18 57° W 04:11:35 10° N
CZ-2D R/B 3.4 04:03:43 10° N 04:07:57 26° WNW 04:11:08 15° WSW
Cosmos 2151 3.5 04:07:27 19° SW 04:10:12 44° WNW 04:14:21 10° N
Cosmos 1295 Rocket 4.5 04:04:56 10° N 04:11:04 90° NW 04:17:13 10° S
USA 267 3.5 04:04:45 10° NE 04:11:12 63° NW 04:17:05 13° WSW
ARIANE 5 R/B 3.5 04:13:38 10° N 04:18:07 32° WNW 04:21:44 14° SW
Cosmos 405 Rocket 2.6 04:14:55 10° NNW 04:18:45 70° W 04:22:28 10° S
Cosmos 1805 Rocket 4.3 04:17:30 10° S 04:21:42 53° E 04:25:56 10° NNE
ATLAS 3B R/B 3.6 04:15:42 10° NNW 04:22:11 52° NE 04:28:33 10° SE
Cosmos 2218 Rocket 4.5 04:17:28 10° N 04:23:37 63° E 04:29:40 10° SSE
Meteor 2-10 Rocket 3.4 04:19:39 10° NNW 04:24:40 67° W 04:29:36 10° S
Resurs 1-4 Rocket 3.8 04:22:31 10° NNW 04:26:02 18° WNW 04:29:33 10° WSW
BREEZE-M DEB (TANK) 3.3 04:19:24 11° WSW 04:26:35 82° NNW 04:29:41 10° ENE
Cosmos 220 Rocket 4.5 04:24:16 14° SW 04:27:45 46° WNW 04:31:55 10° N
H-II Stage 2 4.4 04:24:03 13° SW 04:29:06 35° S 04:57:47 10° ESE
In-Cosmos 22 Rocket 4.4 04:25:56 10° S 04:31:20 70° E 04:36:40 10° NNE
CZ-4B R/B 4.2 04:30:01 10° NNE 04:33:19 33° E 04:36:39 10° SSE
Cosmos 1844 Rocket 3.7 04:29:01 12° WSW 04:33:41 32° WNW 04:38:45 10° N
OAO 2 Rocket 3.8 04:33:07 10° WSW 04:37:44 39° S 04:42:18 10° ESE
Cosmos 1441 Rocket 4.2 04:38:28 10° NNW 04:41:56 29° W 04:45:19 10° SSW
Cosmos 1707 Rocket 4.2 04:38:05 10° N 04:42:33 61° E 04:46:56 10° SSE
SL-19 R/B 4.4 04:40:46 10° SSW 04:43:23 29° WSW 04:45:56 10° NW
Cosmos 2278 Rocket 2.2 04:38:07 10° SSW 04:43:47 77° WNW 04:49:29 10° NNE
USA 234 3.6 04:37:47 10° ESE 04:44:17 76° NE 04:50:50 10° NW
ADEOS II 2.5 04:41:17 10° N 04:46:20 49° WNW 04:51:21 10° SW
SL-16 R/B 4.3 04:47:30 10° W 04:48:56 11° W 04:50:22 10° WNW
Cosmos 1833 Rocket 3.5 04:45:51 10° NNW 04:51:22 56° ENE 04:56:52 10° SE
SL-27 R/B 4.4 04:48:40 10° N 04:52:01 36° ENE 04:55:23 10° SE
Cosmos 1892 2.8 04:50:15 10° S 04:54:07 81° E 04:57:59 10° N
